GW1838 Weather Reports


time (UTC)temp
F
wind
direction
speed
knots
gust
knots
rain 1hr
in
rain 24hr
in
rain mn
in
humidity
%
barometer
mb
20260906062806 72 352 5.2 8.7 0.00 0.00 0.00 82 1010.2
20260906062306 72 35 5.2 7.8 0.00 0.00 0.00 81 1010.2
20260906061806 72 22 4.3 8.7 0.00 0.00 0.00 82 1010.2
20260906061306 72 28 5.2 8.7 0.00 0.00 0.00 81 1010.2
20260906060306 72 3 7.0 10.4 0.00 0.02 0.00 80 1010.4
20260906055807 72 354 7.8 10.4 0.00 0.07 0.00 81 1010.4
20260906054807 72 320 4.3 7.8 0.00 0.08 0.00 82 1010.4
20260906052309 72 330 4.3 5.2 0.00 0.08 0.00 82 1010.7
20260906051806 72 313 2.6 4.3 0.00 0.08 0.00 82 1010.7
20260906051306 72 326 2.6 7.8 0.00 0.08 0.00 82 1010.7
20260906050806 72 314 1.7 6.1 0.00 0.08 0.00 82 1010.7
20260906045306 72 292 4.3 7.0 0.00 0.08 0.00 81 1010.7
20260906044806 72 300 2.6 5.2 0.00 0.08 0.00 81 1010.7
20260906044306 72 285 1.7 5.2 0.00 0.08 0.00 81 1010.8
20260906043806 72 280 1.7 5.2 0.00 0.08 0.00 81 1010.8
20260906043306 72 284 2.6 5.2 0.00 0.08 0.00 81 1010.8
20260906040832 73 281 2.6 5.2 0.00 0.08 0.00 80 1010.9
20260906035806 73 289 1.7 4.3 0.00 0.08 0.08 80 1010.9
20260906035306 73 269 1.7 4.3 0.00 0.08 0.08 80 1011.0
20260906034306 73 294 1.7 4.3 0.00 0.08 0.08 79 1010.9
20260906033806 73 280 2.6 5.2 0.00 0.08 0.08 78 1010.8
20260906032806 73 290 1.7 4.3 0.00 0.08 0.08 78 1010.8
20260906031806 73 280 1.7 4.3 0.00 0.08 0.08 79 1010.7
20260906030806 73 279 0.9 2.6 0.00 0.08 0.08 79 1010.8
20260906030306 73 284 0.9 2.6 0.00 0.08 0.08 79 1010.8
20260906025806 73 275 0.9 2.6 0.00 0.08 0.08 79 1010.8
20260906025306 73 274 0.9 1.7 0.00 0.08 0.08 79 1010.8
20260906024806 73 273 0.0 2.6 0.00 0.08 0.08 79 1010.7
20260906024306 73 268 0.9 2.6 0.00 0.08 0.08 78 1010.7
20260906023806 74 282 0.9 2.6 0.00 0.08 0.08 78 1010.6
20260906021806 74 282 0.9 2.6 0.00 0.08 0.08 76 1010.6
20260906021306 74 282 0.0 2.6 0.00 0.08 0.08 76 1010.6
20260906020807 75 282 0.9 2.6 0.00 0.08 0.08 77 1010.6
20260906015806 74 279 0.0 2.6 0.00 0.08 0.08 75 1010.5
20260906015306 75 295 0.0 2.6 0.00 0.08 0.08 75 1010.4
20260906014806 75 297 0.0 1.7 0.00 0.08 0.08 74 1010.4
20260906014306 75 297 0.0 0.0 0.00 0.08 0.08 74 1010.3
20260906013806 75 297 0.0 2.6 0.00 0.08 0.08 74 1010.3
20260906012808 74 127 0.0 0.0 0.00 0.08 0.08 71 1010.2
20260906011306 74 127 0.0 0.0 0.00 0.08 0.08 71 1010.2
20260906005306 74 127 0.0 0.9 0.00 0.08 0.08 71 1010.0
20260906004806 74 127 0.0 0.0 0.00 0.08 0.08 70 1010.1
20260906004306 74 127 0.0 0.0 0.00 0.08 0.08 70 1010.0
20260906000306 75 127 0.0 0.0 0.00 0.08 0.08 70 1009.5
20260905235307 75 127 0.0 0.0 0.00 0.08 0.08 70 1009.4
20260905234805 75 127 0.0 0.9 0.00 0.08 0.08 69 1009.4
20260905234305 75 127 0.9 0.9 0.00 0.08 0.08 70 1009.3
20260905233306 75 127 0.0 0.0 0.00 0.08 0.08 70 1009.3
20260905232806 76 127 0.0 0.0 0.00 0.08 0.08 69 1009.3
20260905232306 76 127 0.0 0.0 0.00 0.08 0.08 69 1009.3
20260905231306 76 127 0.0 0.9 0.00 0.08 0.08 69 1009.3
20260905225807 77 127 1.7 2.6 0.00 0.08 0.08 67 1009.5
20260905224805 77 128 0.9 2.6 0.00 0.08 0.08 67 1009.3
20260905223806 78 169 0.9 2.6 0.00 0.08 0.08 65 1009.3
20260905223306 78 169 1.7 2.6 0.00 0.08 0.08 64 1009.3
20260905222806 78 169 1.7 2.6 0.00 0.08 0.08 64 1009.3
20260905214806 78 150 1.7 4.3 0.00 0.08 0.08 65 1009.2
20260905214306 78 128 1.7 4.3 0.00 0.08 0.08 64 1009.2
20260905211806 79 93 3.5 6.1 0.00 0.08 0.08 62 1009.0
20260905210806 79 109 2.6 5.2 0.00 0.08 0.08 63 1009.0
20260905210306 78 99 2.6 6.1 0.00 0.08 0.08 63 1009.0
20260905203306 78 77 4.3 6.1 0.00 0.08 0.08 63 1008.9
20260905202306 78 76 4.3 6.1 0.00 0.08 0.08 64 1009.1
20260905200805 79 93 4.3 8.7 0.00 0.08 0.08 64 1009.1
20260905200306 79 100 5.2 7.0 0.00 0.08 0.08 64 1009.1
20260905195307 80 110 2.6 5.2 0.00 0.08 0.08 65 1009.1
20260905194806 80 130 2.6 6.1 0.00 0.08 0.08 64 1009.0
20260905192306 79 137 2.6 7.8 0.00 0.08 0.08 64 1009.3
20260905191806 79 104 5.2 7.8 0.00 0.08 0.08 61 1009.3
20260905185306 80 90 1.7 5.2 0.00 0.08 0.08 61 1009.3
20260905183306 80 89 2.6 6.1 0.00 0.08 0.08 63 1009.5
20260905182306 79 75 5.2 6.1 0.00 0.08 0.08 63 1009.4
20260905175806 79 88 4.3 8.7 0.00 0.08 0.08 66 1009.5
20260905175306 79 90 5.2 8.7 0.00 0.08 0.08 65 1009.5
20260905174806 80 94 5.2 8.7 0.00 0.08 0.08 64 1009.3
20260905174305 80 94 4.3 6.1 0.00 0.08 0.08 64 1009.4
20260905172805 80 107 5.2 8.7 0.00 0.08 0.08 65 1009.4
20260905171305 81 79 4.3 7.0 0.00 0.08 0.08 64 1009.4
20260905170306 81 86 4.3 7.8 0.00 0.08 0.08 63 1009.4
20260905165307 81 107 2.6 7.0 0.00 0.08 0.08 64 1009.5
20260905164806 81 137 3.5 6.1 0.00 0.08 0.08 63 1009.5
20260905164305 81 97 4.3 7.0 0.00 0.08 0.08 64 1009.5
20260905162806 81 132 2.6 5.2 0.00 0.08 0.08 62 1009.6
20260905161306 81 98 4.3 7.8 0.00 0.08 0.08 63 1009.6
20260905160305 81 350 0.9 2.6 0.00 0.08 0.08 57 1009.8
20260905155306 79 350 1.7 2.6 0.00 0.08 0.08 62 1009.8
20260905154805 79 345 2.6 2.6 0.00 0.08 0.08 62 1009.9
20260905153305 78 350 2.6 4.3 0.00 0.08 0.08 65 1009.9
20260905151305 77 0 5.2 8.7 0.00 0.08 0.08 67 1009.8
20260905150805 78 356 5.2 7.8 0.00 0.08 0.08 67 1009.7
20260905150305 78 4 5.2 7.8 0.00 0.08 0.08 69 1009.8
20260905145307 78 22 6.1 8.7 0.00 0.08 0.08 68 1009.8
20260905143806 78 11 4.3 6.1 0.00 0.08 0.08 67 1009.6
20260905143306 77 31 4.3 8.7 0.00 0.08 0.08 68 1009.5
20260905142805 77 17 6.1 10.4 0.00 0.08 0.08 67 1009.4
20260905141805 77 18 5.2 8.7 0.00 0.08 0.08 69 1009.5
20260905140805 77 19 7.8 10.4 0.00 0.08 0.08 69 1009.4
20260905140306 76 9 6.1 10.4 0.00 0.08 0.08 70 1009.4
20260905135805 75 5 6.1 13.0 0.00 0.08 0.08 72 1009.4
20260905135307 75 22 7.0 11.3 0.00 0.08 0.08 73 1009.3
20260905133305 74 25 7.8 12.2 0.00 0.08 0.08 74 1009.4
20260905132805 74 22 8.7 12.2 0.00 0.08 0.08 74 1009.4
20260905132306 74 26 8.7 11.3 0.00 0.08 0.08 74 1009.4
20260905131305 74 25 8.7 12.2 0.00 0.08 0.08 74 1009.5
20260905125805 74 33 8.7 13.0 0.00 0.08 0.08 74 1009.3
20260905125306 74 20 8.7 13.0 0.00 0.08 0.08 74 1009.4
20260905124305 74 17 10.4 13.9 0.00 0.08 0.08 74 1009.4
20260905122807 74 14 8.7 13.0 0.00 0.08 0.08 75 1009.7
20260905121806 74 1 9.6 13.0 0.00 0.08 0.08 74 1009.6
20260905121305 75 9 11.3 15.6 0.00 0.08 0.08 74 1009.7
20260905120306 75 0 8.7 12.2 0.00 0.08 0.08 74 1009.6
20260905115306 75 3 8.7 13.9 0.00 0.08 0.08 74 1009.4
20260905114806 75 358 9.6 13.0 0.00 0.08 0.08 72 1009.5
20260905113805 75 22 8.7 13.9 0.00 0.08 0.08 71 1009.4
20260905113305 75 21 7.8 12.2 0.00 0.08 0.08 72 1009.2
20260905112306 75 359 8.7 13.9 0.00 0.08 0.08 72 1009.2
20260905111305 75 11 10.4 13.0 0.00 0.08 0.08 74 1009.2
20260905110805 75 352 11.3 13.0 0.00 0.08 0.08 75 1009.2
20260905110305 75 354 9.6 13.0 0.00 0.08 0.08 74 1009.1
20260905105306 75 354 7.8 11.3 0.00 0.08 0.08 74 1008.9
20260905104805 75 356 7.8 11.3 0.00 0.08 0.08 74 1008.9
20260905103306 75 17 8.7 14.8 0.00 0.08 0.08 74 1008.7
20260905102306 75 15 7.8 13.9 0.00 0.08 0.08 74 1008.6
20260905100805 75 3 7.0 10.4 0.00 0.08 0.08 76 1008.5
20260905100305 75 6 6.1 10.4 0.00 0.08 0.08 75 1008.5
20260905093805 76 350 8.7 10.4 0.00 0.08 0.08 76 1008.6
20260905093305 76 346 7.8 10.4 0.00 0.08 0.08 77 1008.5
20260905092306 76 21 6.1 10.4 0.00 0.08 0.08 75 1008.4
20260905091805 76 20 6.1 10.4 0.00 0.08 0.08 75 1008.4
20260905090805 76 17 6.1 10.4 0.00 0.08 0.08 76 1008.5
20260905090305 76 23 6.1 10.4 0.00 0.08 0.08 76 1008.6
20260905085806 76 27 6.1 10.4 0.00 0.08 0.08 77 1008.5
20260905085306 76 17 7.0 10.4 0.00 0.08 0.08 76 1008.5
20260905083306 76 356 6.1 10.4 0.00 0.08 0.08 76 1008.4
20260905082307 76 6 7.8 12.2 0.00 0.08 0.08 77 1008.4
20260905080805 76 354 8.7 10.4 0.00 0.08 0.08 76 1008.5
20260905073806 76 338 2.6 6.1 0.00 0.08 0.08 79 1008.7
20260905072306 76 352 1.7 5.2 0.00 0.08 0.08 77 1008.8
20260905071806 76 355 2.6 5.2 0.00 0.08 0.08 76 1008.8
20260905071305 76 347 4.3 6.1 0.00 0.08 0.08 77 1008.8
20260905070306 75 312 1.7 4.3 0.01 0.08 0.08 78 1008.9
20260905065805 75 295 0.9 2.6 0.06 0.08 0.08 81 1009.0
20260905065306 75 293 0.9 4.3 0.08 0.08 0.08 81 1009.1